Location: Castiglione Fibocchi
(43.5333°N, 11.7667°E)
Time: 14:25:39
(UTC+00:00)

USA 238 DEB - Pass Details

Date: 15 August 2020
Orbit: 1006 x 1206 km, 63.4° (Epoch: 19 September)

Event Time Altitude Azimuth Distance (km) Brightness Sun altitude
Rises 03:12:38 0° 324° (NW) 3,943 6.6 -11.5°
Reaches altitude 10° 03:15:19 10° 327° (NNW) 3,010 6.1 -11.1°
Maximum altitude 03:22:30 65° 50° (NE) 1,265 4.4 -9.9°
Drops below altitude 10° 03:29:57 10° 132° (SE) 3,118 6.4 -8.8°
Sets 03:32:45 0° 135° (SE) 4,091 7.0 -8.3°
